QPF
0.09 0.12 0.13 0.18 0.22 0.21 0.23 0.25 0.26 0.23 0.19 0.13 0.16 0.11 0.05 0.04 0.04 0.06 0.09 0.04 0.02 0.02 0.02 0.01 0.01 0.00 0.00 0.01 0.01 0.02 0.03 0.05 0.06 0.08 0.08 0.06 0.04 0.03 0.02 0.01 0.01 0.01 0.01
0.07 0.10 0.13 0.16 0.21 0.23 0.23 0.23 0.22 0.22 0.23 0.16 0.17 0.14 0.07 0.04 0.04 0.05 0.07 0.04 0.01 0.01 0.01 0.01 0.01 0.01 0.01 0.01 0.01 0.01 0.02 0.03 0.05 0.07 0.08 0.06 0.04 0.03 0.02 0.01 0.00 0.00 0.00
0.06 0.08 0.11 0.14 0.17 0.19 0.20 0.22 0.24 0.26 0.26 0.24 0.19 0.14 0.07 0.03 0.02 0.03 0.04 0.04 0.02 0.00 0.00 0.01 0.01 0.01 0.01 0.01 0.02 0.02 0.01 0.02 0.04 0.06 0.07 0.06 0.04 0.02 0.01 0.01 0.01 0.00 0.01
0.02 0.05 0.07 0.10 0.14 0.18 0.21 0.21 0.22 0.27 0.29 0.29 0.27 0.16 0.09 0.06 0.03 0.03 0.03 0.04 0.02 0.02 0.01 0.00 0.01 0.00 0.01 0.01 0.02 0.02 0.01 0.02 0.03 0.05 0.06 0.06 0.04 0.03 0.02 0.01 0.01 0.01 0.00
0.01 0.03 0.06 0.07 0.10 0.15 0.17 0.17 0.21 0.26 0.31 0.31 0.30 0.21 0.12 0.09 0.05 0.03 0.03 0.04 0.03 0.03 0.03 0.02 0.00 0.00 0.00 0.00 0.01 0.02 0.01 0.02 0.02 0.03 0.04 0.04 0.03 0.02 0.02 0.01 0.01 0.01 0.00
0.01 0.02 0.03 0.04 0.07 0.10 0.15 0.18 0.24 0.27 0.28 0.31 0.33 0.25 0.16 0.12 0.07 0.05 0.03 0.03 0.04 0.06 0.05 0.03 0.01 0.00 0.00 0.00 0.00 0.01 0.02 0.02 0.01 0.02 0.03 0.02 0.02 0.02 0.02 0.02 0.01 0.01 0.00
0.02 0.02 0.02 0.03 0.05 0.07 0.10 0.14 0.19 0.22 0.26 0.31 0.32 0.27 0.23 0.16 0.10 0.06 0.04 0.04 0.04 0.06 0.07 0.08 0.04 0.02 0.00 0.00 0.00 0.00 0.01 0.02 0.02 0.02 0.03 0.03 0.02 0.02 0.01 0.02 0.01 0.00 0.00
0.03 0.02 0.02 0.04 0.05 0.06 0.06 0.09 0.14 0.16 0.18 0.26 0.26 0.27 0.24 0.20 0.13 0.07 0.05 0.04 0.04 0.03 0.06 0.10 0.10 0.07 0.03 0.01 0.00 0.00 0.00 0.01 0.03 0.03 0.03 0.04 0.03 0.02 0.02 0.01 0.01 0.01 0.01
0.05 0.04 0.03 0.04 0.04 0.06 0.06 0.07 0.10 0.12 0.13 0.19 0.26 0.29 0.24 0.20 0.19 0.11 0.06 0.05 0.04 0.05 0.06 0.08 0.11 0.11 0.08 0.04 0.02 0.00 0.00 0.00 0.01 0.03 0.03 0.04 0.04 0.02 0.02 0.02 0.02 0.02 0.02
0.05 0.04 0.04 0.04 0.05 0.06 0.07 0.07 0.08 0.11 0.12 0.12 0.17 0.22 0.23 0.24 0.22 0.15 0.08 0.05 0.05 0.06 0.08 0.10 0.12 0.11 0.12 0.08 0.05 0.02 0.01 0.00 0.00 0.01 0.03 0.04 0.03 0.02 0.02 0.02 0.02 0.02 0.02
0.03 0.03 0.03 0.03 0.04 0.06 0.06 0.06 0.07 0.09 0.10 0.10 0.12 0.16 0.18 0.20 0.17 0.15 0.11 0.08 0.06 0.05 0.05 0.09 0.12 0.09 0.12 0.13 0.11 0.06 0.03 0.01 0.00 0.00 0.01 0.03 0.03 0.03 0.02 0.02 0.02 0.02 0.02
0.02 0.02 0.02 0.02 0.02 0.03 0.04 0.05 0.05 0.06 0.08 0.10 0.11 0.12 0.14 0.15 0.13 0.14 0.12 0.12 0.11 0.08 0.06 0.06 0.08 0.10 0.10 0.13 0.19 0.21 0.10 0.04 0.01 0.00 0.00 0.02 0.03 0.04 0.04 0.03 0.02 0.01 0.01
0.02 0.02 0.02 0.03 0.02 0.02 0.02 0.03 0.04 0.05 0.07 0.09 0.09 0.11 0.12 0.13 0.17 0.19 0.17 0.14 0.13 0.09 0.06 0.04 0.05 0.07 0.11 0.12 0.19 0.24 0.16 0.08 0.03 0.01 0.00 0.00 0.01 0.03 0.06 0.06 0.05 0.04 0.03
0.01 0.02 0.02 0.03 0.03 0.03 0.03 0.03 0.03 0.05 0.05 0.07 0.07 0.10 0.11 0.10 0.15 0.16 0.17 0.18 0.15 0.11 0.07 0.03 0.03 0.04 0.07 0.10 0.19 0.25 0.12 0.09 0.04 0.01 0.00 0.00 0.00 0.01 0.03 0.07 0.08 0.07 0.05
0.00 0.00 0.01 0.02 0.03 0.03 0.03 0.03 0.03 0.04 0.05 0.07 0.08 0.10 0.13 0.13 0.16 0.16 0.18 0.19 0.18 0.13 0.09 0.06 0.05 0.04 0.05 0.08 0.18 0.17 0.10 0.09 0.05 0.01 0.01 0.01 0.00 0.00 0.01 0.03 0.05 0.05 0.05
0.00 0.00 0.00 0.00 0.01 0.01 0.01 0.01 0.02 0.04 0.05 0.06 0.07 0.08 0.11 0.13 0.15 0.15 0.15 0.17 0.20 0.18 0.13 0.10 0.10 0.06 0.07 0.07 0.10 0.08 0.09 0.14 0.10 0.04 0.01 0.01 0.01 0.00 0.00 0.01 0.01 0.02 0.03
0.00 0.00 0.00 0.00 0.00 0.00 0.01 0.01 0.02 0.03 0.03 0.05 0.06 0.06 0.08 0.11 0.13 0.14 0.16 0.17 0.18 0.18 0.12 0.10 0.14 0.12 0.11 0.09 0.10 0.08 0.09 0.11 0.08 0.06 0.03 0.01 0.01 0.01 0.01 0.01 0.01 0.01 0.01
0.00 0.00 0.00 0.00 0.00 0.00 0.01 0.01 0.01 0.02 0.02 0.02 0.04 0.05 0.08 0.11 0.12 0.13 0.15 0.16 0.17 0.18 0.16 0.13 0.12 0.12 0.11 0.09 0.12 0.14 0.13 0.11 0.09 0.09 0.05 0.03 0.02 0.02 0.02 0.02 0.01 0.01 0.01
0.00 0.00 0.00 0.00 0.00 0.00 0.00 0.00 0.01 0.01 0.01 0.01 0.02 0.03 0.06 0.08 0.10 0.12 0.13 0.14 0.16 0.18 0.21 0.17 0.13 0.12 0.09 0.10 0.14 0.14 0.16 0.17 0.14 0.14 0.13 0.07 0.04 0.03 0.04 0.04 0.03 0.03 0.02
0.00 0.00 0.00 0.00 0.00 0.00 0.00 0.00 0.01 0.01 0.02 0.02 0.02 0.02 0.04 0.06 0.07 0.08 0.10 0.14 0.16 0.18 0.20 0.19 0.16 0.15 0.10 0.10 0.14 0.13 0.14 0.14 0.16 0.15 0.15 0.11 0.08 0.07 0.06 0.05 0.05 0.04 0.03
0.00 0.00 0.00 0.00 0.00 0.00 0.00 0.00 0.00 0.01 0.02 0.03 0.03 0.04 0.05 0.04 0.03 0.03 0.04 0.08 0.13 0.16 0.19 0.20 0.18 0.17 0.12 0.10 0.09 0.10 0.11 0.13 0.17 0.20 0.18 0.16 0.13 0.10 0.09 0.09 0.09 0.08 0.08
0.00 0.00 0.00 0.00 0.00 0.00 0.00 0.00 0.00 0.01 0.02 0.04 0.05 0.05 0.05 0.04 0.04 0.03 0.03 0.03 0.06 0.09 0.14 0.17 0.18 0.16 0.13 0.11 0.10 0.12 0.15 0.17 0.18 0.18 0.20 0.20 0.20 0.18 0.14 0.11 0.13 0.14 0.14
0.00 0.00 0.00 0.00 0.00 0.00 0.00 0.00 0.00 0.00 0.02 0.04 0.04 0.06 0.06 0.05 0.05 0.05 0.06 0.05 0.05 0.05 0.06 0.09 0.14 0.15 0.16 0.16 0.14 0.11 0.13 0.15 0.17 0.20 0.23 0.26 0.26 0.25 0.23 0.21 0.22 0.18 0.16
0.00 0.00 0.00 0.00 0.00 0.00 0.00 0.00 0.00 0.01 0.04 0.05 0.05 0.05 0.08 0.10 0.07 0.05 0.04 0.06 0.09 0.08 0.07 0.06 0.08 0.12 0.15 0.16 0.16 0.15 0.16 0.19 0.21 0.27 0.29 0.32 0.32 0.30 0.28 0.27 0.28 0.24 0.20
0.00 0.00 0.00 0.00 0.00 0.00 0.00 0.00 0.00 0.01 0.03 0.03 0.04 0.04 0.05 0.08 0.05 0.02 0.03 0.06 0.10 0.11 0.09 0.08 0.06 0.07 0.10 0.13 0.15 0.15 0.17 0.22 0.26 0.29 0.29 0.28 0.33 0.37 0.39 0.36 0.34 0.31 0.26
0.00 0.00 0.00 0.00 0.00 0.00 0.00 0.00 0.00 0.01 0.02 0.02 0.03 0.05 0.05 0.02 0.01 0.01 0.04 0.07 0.08 0.09 0.09 0.09 0.08 0.08 0.08 0.10 0.14 0.16 0.17 0.21 0.24 0.28 0.30 0.30 0.32 0.37 0.48 0.49 0.41 0.37 0.33
MSLP
1011.06 1011.09 1011.15 1011.26 1011.41 1011.60 1011.82 1012.07 1012.30 1012.49 1012.61 1012.65 1012.62 1012.53 1012.43 1012.35 1012.33 1012.40 1012.57 1012.82 1013.14 1013.50 1013.87 1014.22 1014.53 1014.80 1015.02 1015.21 1015.37 1015.52 1015.66 1015.81 1015.97 1016.15 1016.36 1016.59 1016.84 1017.11 1017.38 1017.64 1017.88 1018.09 1018.27
1010.90 1010.84 1010.84 1010.88 1010.99 1011.18 1011.41 1011.69 1011.97 1012.23 1012.42 1012.54 1012.58 1012.55 1012.49 1012.42 1012.39 1012.42 1012.54 1012.74 1013.01 1013.33 1013.68 1014.04 1014.38 1014.69 1014.96 1015.20 1015.41 1015.58 1015.74 1015.90 1016.06 1016.24 1016.45 1016.69 1016.96 1017.26 1017.56 1017.86 1018.14 1018.38 1018.57
1010.84 1010.71 1010.64 1010.64 1010.71 1010.87 1011.11 1011.40 1011.72 1012.03 1012.29 1012.48 1012.59 1012.62 1012.59 1012.54 1012.50 1012.49 1012.54 1012.67 1012.87 1013.13 1013.44 1013.78 1014.13 1014.47 1014.79 1015.08 1015.33 1015.55 1015.74 1015.91 1016.08 1016.26 1016.47 1016.72 1017.01 1017.33 1017.66 1018.00 1018.30 1018.56 1018.76
1010.87 1010.69 1010.57 1010.52 1010.57 1010.70 1010.92 1011.21 1011.54 1011.87 1012.18 1012.42 1012.59 1012.68 1012.69 1012.66 1012.61 1012.56 1012.55 1012.60 1012.71 1012.89 1013.14 1013.44 1013.78 1014.14 1014.49 1014.82 1015.13 1015.39 1015.62 1015.82 1016.00 1016.20 1016.42 1016.67 1016.97 1017.31 1017.66 1018.01 1018.33 1018.61 1018.82
1010.97 1010.76 1010.61 1010.53 1010.54 1010.64 1010.83 1011.10 1011.42 1011.75 1012.07 1012.34 1012.55 1012.68 1012.74 1012.73 1012.68 1012.60 1012.54 1012.51 1012.53 1012.62 1012.79 1013.04 1013.34 1013.69 1014.07 1014.44 1014.79 1015.10 1015.38 1015.62 1015.84 1016.05 1016.28 1016.55 1016.85 1017.19 1017.55 1017.91 1018.24 1018.52 1018.74
1011.13 1010.91 1010.74 1010.64 1010.62 1010.69 1010.83 1011.06 1011.33 1011.63 1011.94 1012.22 1012.45 1012.62 1012.71 1012.74 1012.69 1012.61 1012.50 1012.41 1012.35 1012.36 1012.44 1012.61 1012.86 1013.19 1013.56 1013.96 1014.35 1014.71 1015.04 1015.33 1015.59 1015.83 1016.09 1016.37 1016.68 1017.02 1017.37 1017.73 1018.06 1018.34 1018.55
1011.33 1011.10 1010.93 1010.81 1010.77 1010.79 1010.90 1011.06 1011.27 1011.52 1011.79 1012.05 1012.29 1012.48 1012.61 1012.66 1012.65 1012.58 1012.46 1012.32 1012.20 1012.12 1012.11 1012.20 1012.39 1012.67 1013.02 1013.42 1013.84 1014.24 1014.62 1014.97 1015.27 1015.56 1015.85 1016.14 1016.46 1016.80 1017.16 1017.50 1017.82 1018.10 1018.32
1011.56 1011.33 1011.15 1011.03 1010.96 1010.95 1010.99 1011.09 1011.23 1011.41 1011.62 1011.84 1012.06 1012.27 1012.43 1012.53 1012.56 1012.51 1012.40 1012.24 1012.08 1011.94 1011.86 1011.86 1011.97 1012.18 1012.49 1012.88 1013.30 1013.73 1014.15 1014.55 1014.91 1015.25 1015.57 1015.90 1016.23 1016.57 1016.92 1017.26 1017.58 1017.85 1018.07
1011.80 1011.57 1011.39 1011.26 1011.17 1011.12 1011.11 1011.14 1011.20 1011.29 1011.43 1011.60 1011.80 1012.00 1012.18 1012.33 1012.41 1012.40 1012.33 1012.18 1012.00 1011.82 1011.67 1011.60 1011.62 1011.76 1012.01 1012.35 1012.76 1013.20 1013.64 1014.08 1014.49 1014.88 1015.25 1015.61 1015.97 1016.33 1016.68 1017.02 1017.33 1017.61 1017.85
1012.03 1011.79 1011.61 1011.47 1011.37 1011.30 1011.24 1011.19 1011.17 1011.18 1011.24 1011.34 1011.50 1011.68 1011.88 1012.06 1012.19 1012.25 1012.22 1012.11 1011.94 1011.74 1011.55 1011.41 1011.35 1011.41 1011.58 1011.85 1012.22 1012.64 1013.09 1013.56 1014.01 1014.45 1014.86 1015.26 1015.66 1016.04 1016.41 1016.76 1017.08 1017.37 1017.63
1012.22 1011.98 1011.80 1011.66 1011.55 1011.45 1011.35 1011.24 1011.15 1011.07 1011.05 1011.08 1011.18 1011.33 1011.53 1011.74 1011.92 1012.03 1012.06 1012.00 1011.86 1011.66 1011.44 1011.25 1011.12 1011.09 1011.18 1011.37 1011.67 1012.06 1012.50 1012.97 1013.45 1013.92 1014.38 1014.83 1015.26 1015.68 1016.07 1016.44 1016.78 1017.10 1017.39
1012.35 1012.11 1011.93 1011.80 1011.68 1011.57 1011.43 1011.28 1011.12 1010.97 1010.86 1010.81 1010.85 1010.96 1011.14 1011.35 1011.57 1011.73 1011.82 1011.81 1011.71 1011.53 1011.31 1011.08 1010.89 1010.78 1010.78 1010.90 1011.12 1011.45 1011.86 1012.31 1012.81 1013.31 1013.81 1014.30 1014.77 1015.22 1015.64 1016.04 1016.42 1016.76 1017.08
1012.40 1012.17 1012.00 1011.88 1011.77 1011.65 1011.49 1011.31 1011.09 1010.88 1010.69 1010.57 1010.53 1010.59 1010.73 1010.93 1011.16 1011.35 1011.49 1011.53 1011.47 1011.33 1011.11 1010.86 1010.64 1010.46 1010.38 1010.42 1010.56 1010.82 1011.18 1011.62 1012.10 1012.62 1013.15 1013.67 1014.18 1014.66 1015.12 1015.55 1015.95 1016.33 1016.69
1012.38 1012.17 1012.02 1011.91 1011.81 1011.69 1011.53 1011.33 1011.07 1010.81 1010.56 1010.36 1010.26 1010.25 1010.34 1010.50 1010.72 1010.92 1011.09 1011.17 1011.15 1011.03 1010.83 1010.59 1010.34 1010.12 1009.98 1009.94 1010.01 1010.21 1010.52 1010.92 1011.39 1011.91 1012.45 1012.99 1013.53 1014.05 1014.53 1014.99 1015.42 1015.82 1016.21
1012.31 1012.12 1011.99 1011.90 1011.82 1011.71 1011.56 1011.34 1011.08 1010.78 1010.48 1010.22 1010.05 1009.97 1010.00 1010.11 1010.29 1010.48 1010.65 1010.75 1010.76 1010.67 1010.49 1010.26 1010.00 1009.76 1009.58 1009.48 1009.50 1009.64 1009.90 1010.26 1010.72 1011.23 1011.77 1012.33 1012.88 1013.42 1013.92 1014.40 1014.84 1015.27 1015.68
1012.23 1012.07 1011.96 1011.89 1011.83 1011.74 1011.59 1011.38 1011.11 1010.79 1010.47 1010.17 1009.94 1009.80 1009.75 1009.81 1009.92 1010.08 1010.22 1010.31 1010.33 1010.26 1010.11 1009.89 1009.64 1009.40 1009.20 1009.08 1009.06 1009.16 1009.38 1009.71 1010.14 1010.64 1011.18 1011.74 1012.29 1012.83 1013.34 1013.83 1014.28 1014.72 1015.15
1012.18 1012.04 1011.95 1011.89 1011.84 1011.77 1011.64 1011.44 1011.18 1010.87 1010.53 1010.21 1009.93 1009.73 1009.62 1009.60 1009.65 1009.75 1009.84 1009.91 1009.92 1009.86 1009.72 1009.52 1009.29 1009.06 1008.86 1008.74 1008.71 1008.79 1008.99 1009.30 1009.70 1010.18 1010.70 1011.25 1011.80 1012.33 1012.84 1013.32 1013.78 1014.22 1014.66
1012.18 1012.06 1011.98 1011.92 1011.88 1011.81 1011.69 1011.52 1011.27 1010.97 1010.64 1010.30 1010.00 1009.76 1009.59 1009.50 1009.47 1009.50 1009.53 1009.55 1009.54 1009.46 1009.33 1009.16 1008.95 1008.74 1008.57 1008.46 1008.44 1008.52 1008.70 1009.00 1009.38 1009.84 1010.34 1010.87 1011.40 1011.91 1012.40 1012.87 1013.32 1013.77 1014.21
1012.23 1012.11 1012.03 1011.97 1011.92 1011.85 1011.74 1011.58 1011.35 1011.07 1010.75 1010.42 1010.10 1009.83 1009.61 1009.45 1009.36 1009.30 1009.27 1009.24 1009.18 1009.09 1008.96 1008.80 1008.62 1008.45 1008.31 1008.22 1008.22 1008.31 1008.49 1008.77 1009.14 1009.57 1010.05 1010.54 1011.04 1011.53 1012.00 1012.46 1012.90 1013.35 1013.80
1012.31 1012.19 1012.10 1012.02 1011.95 1011.87 1011.76 1011.60 1011.39 1011.13 1010.82 1010.50 1010.18 1009.88 1009.63 1009.42 1009.25 1009.13 1009.03 1008.94 1008.85 1008.73 1008.60 1008.45 1008.30 1008.15 1008.05 1007.99 1008.01 1008.11 1008.29 1008.56 1008.90 1009.30 1009.74 1010.20 1010.66 1011.12 1011.58 1012.02 1012.46 1012.91 1013.39
1012.39 1012.26 1012.15 1012.05 1011.95 1011.85 1011.72 1011.56 1011.35 1011.10 1010.81 1010.50 1010.18 1009.87 1009.58 1009.33 1009.12 1008.94 1008.78 1008.64 1008.50 1008.37 1008.23 1008.09 1007.95 1007.84 1007.76 1007.73 1007.76 1007.86 1008.04 1008.29 1008.60 1008.96 1009.35 1009.77 1010.20 1010.63 1011.06 1011.50 1011.95 1012.42 1012.93
1012.40 1012.27 1012.14 1012.02 1011.89 1011.76 1011.62 1011.44 1011.23 1010.98 1010.70 1010.39 1010.07 1009.76 1009.46 1009.17 1008.92 1008.70 1008.49 1008.31 1008.15 1007.99 1007.84 1007.71 1007.59 1007.49 1007.43 1007.42 1007.45 1007.54 1007.70 1007.91 1008.18 1008.49 1008.84 1009.21 1009.60 1010.01 1010.43 1010.87 1011.34 1011.85 1012.40
1012.32 1012.19 1012.05 1011.91 1011.77 1011.61 1011.45 1011.25 1011.03 1010.78 1010.50 1010.20 1009.88 1009.56 1009.25 1008.94 1008.67 1008.41 1008.18 1007.97 1007.78 1007.62 1007.46 1007.33 1007.21 1007.12 1007.07 1007.05 1007.07 1007.14 1007.26 1007.43 1007.65 1007.90 1008.20 1008.53 1008.89 1009.27 1009.70 1010.16 1010.66 1011.22 1011.82
1012.11 1011.99 1011.86 1011.72 1011.57 1011.41 1011.23 1011.02 1010.80 1010.54 1010.26 1009.95 1009.64 1009.32 1009.00 1008.69 1008.40 1008.13 1007.88 1007.65 1007.45 1007.27 1007.11 1006.97 1006.85 1006.76 1006.69 1006.65 1006.65 1006.68 1006.75 1006.87 1007.03 1007.23 1007.48 1007.77 1008.11 1008.49 1008.92 1009.41 1009.97 1010.58 1011.25
1011.76 1011.66 1011.56 1011.44 1011.30 1011.15 1010.98 1010.78 1010.56 1010.31 1010.03 1009.73 1009.42 1009.10 1008.78 1008.47 1008.17 1007.89 1007.62 1007.39 1007.17 1006.98 1006.81 1006.66 1006.53 1006.42 1006.33 1006.27 1006.23 1006.22 1006.24 1006.30 1006.41 1006.56 1006.77 1007.03 1007.36 1007.75 1008.20 1008.73 1009.34 1010.01 1010.75
1011.28 1011.22 1011.15 1011.08 1010.98 1010.86 1010.72 1010.55 1010.35 1010.12 1009.86 1009.57 1009.27 1008.96 1008.64 1008.33 1008.02 1007.73 1007.46 1007.21 1006.99 1006.78 1006.60 1006.43 1006.28 1006.15 1006.03 1005.94 1005.86 1005.80 1005.78 1005.80 1005.86 1005.98 1006.16 1006.41 1006.74 1007.14 1007.63 1008.20 1008.86 1009.59 1010.39
Thickness
5730 5733 5736 5737 5739 5740 5741 5742 5743 5744 5747 5751 5755 5757 5761 5764 5765 5765 5762 5761 5760 5760 5759 5757 5756 5756 5756 5755 5756 5756 5756 5756 5756 5755 5755 5754 5754 5753 5752 5751 5750 5749 5748
5726 5728 5731 5733 5735 5737 5738 5739 5740 5741 5744 5747 5750 5753 5756 5760 5763 5764 5762 5761 5761 5761 5760 5759 5757 5757 5756 5756 5756 5756 5756 5756 5755 5755 5754 5754 5753 5752 5751 5750 5749 5748 5747
5720 5723 5725 5728 5731 5733 5735 5735 5736 5737 5739 5742 5745 5748 5751 5756 5759 5762 5763 5762 5761 5761 5761 5760 5758 5758 5757 5757 5756 5756 5756 5756 5755 5755 5754 5753 5752 5751 5750 5749 5748 5747 5746
5713 5716 5718 5721 5725 5728 5730 5730 5732 5731 5734 5736 5738 5742 5746 5751 5755 5759 5762 5763 5763 5762 5761 5760 5759 5759 5758 5757 5757 5756 5756 5756 5755 5754 5754 5753 5752 5750 5749 5748 5747 5746 5745
5705 5709 5711 5716 5719 5722 5724 5726 5728 5728 5729 5731 5733 5737 5741 5745 5750 5754 5758 5762 5764 5764 5762 5761 5760 5759 5758 5758 5757 5757 5756 5755 5755 5754 5753 5752 5751 5750 5749 5747 5746 5745 5744
5698 5702 5705 5709 5712 5714 5716 5719 5722 5724 5725 5727 5729 5732 5735 5740 5745 5748 5753 5758 5762 5764 5763 5761 5760 5759 5758 5758 5758 5757 5756 5756 5755 5754 5753 5752 5751 5749 5748 5747 5745 5744 5743
5692 5695 5698 5701 5704 5706 5709 5713 5716 5717 5720 5723 5721 5722 5727 5733 5738 5743 5748 5752 5757 5760 5761 5761 5760 5759 5758 5758 5758 5757 5757 5756 5755 5754 5753 5751 5750 5749 5748 5746 5745 5744 5742
5686 5689 5691 5694 5698 5700 5702 5706 5709 5710 5714 5718 5716 5714 5714 5719 5728 5737 5741 5745 5750 5756 5758 5759 5759 5760 5760 5759 5758 5758 5757 5756 5755 5754 5752 5751 5750 5748 5747 5745 5744 5743 5741
5682 5683 5685 5688 5691 5694 5695 5699 5703 5704 5705 5711 5715 5712 5709 5710 5718 5727 5734 5739 5744 5748 5752 5756 5757 5758 5759 5758 5758 5757 5757 5756 5755 5754 5752 5751 5749 5748 5746 5745 5743 5742 5740
5679 5679 5680 5682 5685 5688 5690 5694 5698 5699 5700 5701 5707 5711 5713 5715 5712 5713 5723 5732 5738 5742 5746 5751 5754 5756 5757 5757 5758 5758 5757 5755 5754 5753 5752 5750 5749 5747 5745 5744 5742 5741 5739
5677 5676 5677 5678 5680 5682 5685 5688 5691 5694 5696 5697 5699 5703 5706 5709 5711 5709 5711 5720 5728 5736 5740 5744 5747 5751 5754 5755 5756 5756 5756 5754 5753 5752 5751 5749 5748 5746 5744 5743 5741 5739 5738
5674 5674 5674 5675 5676 5678 5680 5682 5685 5687 5690 5692 5695 5697 5699 5700 5703 5705 5706 5711 5717 5725 5733 5738 5741 5745 5749 5752 5752 5752 5752 5751 5750 5749 5748 5747 5746 5745 5743 5741 5740 5738 5736
5671 5671 5672 5672 5673 5674 5676 5678 5679 5681 5684 5686 5688 5691 5694 5697 5700 5701 5702 5704 5709 5717 5724 5731 5736 5740 5743 5746 5748 5748 5746 5747 5746 5746 5746 5745 5744 5743 5741 5740 5738 5736 5734
5672 5672 5671 5671 5672 5672 5673 5674 5674 5676 5679 5681 5683 5686 5688 5691 5695 5696 5697 5698 5698 5704 5712 5720 5729 5734 5737 5739 5741 5742 5742 5742 5742 5743 5742 5742 5741 5740 5739 5738 5736 5734 5732
5673 5672 5670 5670 5670 5670 5670 5670 5669 5671 5673 5674 5676 5679 5682 5685 5689 5691 5694 5695 5692 5691 5699 5711 5718 5727 5730 5732 5734 5734 5737 5737 5738 5739 5739 5738 5738 5737 5736 5735 5733 5732 5730
5673 5672 5670 5669 5668 5667 5666 5665 5664 5665 5666 5667 5670 5672 5674 5677 5681 5684 5687 5689 5691 5690 5692 5704 5710 5718 5723 5727 5728 5729 5732 5732 5733 5734 5734 5735 5734 5733 5732 5731 5730 5728 5727
5675 5672 5670 5667 5666 5664 5663 5660 5659 5659 5659 5660 5662 5664 5666 5669 5672 5675 5678 5681 5684 5685 5686 5695 5703 5709 5713 5716 5719 5723 5725 5727 5728 5729 5730 5730 5730 5730 5729 5728 5727 5725 5723
5674 5671 5669 5666 5664 5661 5659 5656 5654 5654 5653 5653 5654 5656 5657 5661 5663 5666 5669 5672 5675 5679 5680 5684 5691 5697 5703 5708 5711 5714 5718 5720 5723 5724 5724 5725 5725 5725 5725 5724 5723 5721 5719
5674 5671 5668 5664 5661 5658 5655 5652 5649 5647 5646 5646 5647 5647 5649 5651 5652 5656 5659 5662 5666 5671 5674 5677 5682 5688 5693 5698 5701 5705 5709 5712 5716 5718 5718 5719 5719 5720 5720 5719 5718 5717 5715
5672 5670 5666 5663 5659 5655 5651 5647 5643 5640 5640 5639 5640 5640 5641 5642 5643 5646 5649 5653 5657 5661 5664 5668 5672 5678 5682 5689 5691 5694 5697 5702 5706 5710 5711 5712 5713 5713 5714 5714 5714 5713 5711
5672 5669 5664 5661 5657 5653 5648 5641 5637 5635 5633 5633 5633 5634 5635 5636 5636 5638 5640 5643 5646 5650 5654 5658 5663 5668 5673 5677 5681 5686 5688 5693 5697 5701 5703 5705 5706 5706 5707 5708 5708 5708 5706
5671 5668 5663 5659 5654 5651 5645 5639 5634 5630 5629 5628 5628 5628 5629 5630 5630 5631 5634 5636 5639 5642 5645 5649 5654 5659 5665 5670 5675 5678 5680 5682 5685 5694 5695 5697 5700 5700 5702 5702 5703 5703 5701
5671 5667 5663 5659 5654 5649 5644 5639 5634 5629 5627 5626 5625 5624 5624 5625 5624 5624 5627 5631 5634 5638 5641 5644 5648 5653 5659 5665 5668 5671 5673 5675 5680 5687 5687 5688 5692 5694 5697 5698 5698 5697 5695
5671 5667 5663 5660 5655 5651 5646 5639 5634 5630 5628 5627 5626 5624 5622 5621 5620 5619 5620 5623 5627 5633 5637 5641 5645 5650 5655 5660 5664 5666 5668 5670 5674 5677 5680 5680 5684 5687 5690 5691 5691 5691 5689
5672 5668 5664 5661 5656 5653 5648 5641 5635 5631 5629 5628 5627 5624 5622 5619 5618 5617 5617 5619 5623 5627 5633 5638 5642 5646 5651 5655 5658 5659 5660 5660 5663 5667 5672 5674 5676 5678 5680 5682 5684 5683 5682
5673 5669 5666 5662 5659 5655 5650 5644 5638 5633 5629 5628 5626 5625 5622 5620 5618 5617 5616 5617 5619 5623 5627 5632 5636 5641 5645 5650 5653 5655 5657 5657 5658 5659 5664 5666 5668 5668 5667 5671 5674 5674 5673